[[{"header":{"parameterUnit":"m.s-1","parameterCategory":1,"la1":30.2991,"la2":30.254,"lo1":-89.0895,"lo2":-89.0444,"dy":0.0017,"dx":0.0017,"nx":28,"ny":28,"refTime":"2024-06-28T09:00:00:Z","depth":0,"parameterNumber":2,"parameterNumberName":"U-component_of_WINDS"},"data":[0,0,0,0,0,0,0,0,0,0,0,0,0,0,0,0,0,0,0,0,0,0,0,0,0,0,0,0,0,0,0,0,0,0,0,0,0,0,0,0,0,0,0,0,0,0,0,0,0,0,0,0,0,0,0,0,0,0,-0.1927,-0.1926,0,-0.1838,-0.1837,-0.1836,-0.178,-0.178,-0.178,-0.1779,-0.1689,-0.1687,-0.1685,0,0,0,0,0,0,0,0,0,0,0,0,0,-0.2052,-0.205,-0.1927,-0.1926,-0.1925,-0.1838,-0.1837,-0.1835,-0.178,-0.178,-0.178,-0.1779,-0.169,-0.1688,-0.1685,0,0,0,0,0,0,0,0,0,0,0,0,0,-0.1984,-0.2049,-0.1927,-0.1887,-0.1882,-0.1838,-0.1837,-0.1835,-0.178,-0.178,-0.178,-0.1779,-0.1691,-0.1688,-0.1685,-0.1674,0,0,-0.1675,-0.1674,0,0,0,0,0,0,0,0,-0.1988,-0.1979,-0.1894,-0.1889,-0.1884,-0.182,-0.1847,-0.1781,-0.1781,-0.1819,-0.1779,-0.1779,-0.1733,-0.1727,-0.1711,-0.167,-0.1666,-0.1675,-0.1673,-0.1672,-0.1671,0,0,0,0,0,0,0,-0.1992,-0.1983,-0.1892,-0.1893,-0.1887,-0.1874,-0.1864,-0.1835,-0.178,-0.1816,-0.1812,-0.1802,-0.1731,-0.1714,-0.1708,-0.1665,-0.1675,-0.1672,-0.167,-0.1669,-0.1611,-0.1612,0,0,0,0,0,0,-0.2003,-0.1987,-0.1894,-0.1889,-0.1936,-0.1872,-0.186,-0.1841,-0.178,-0.177,-0.1802,-0.1799,-0.172,-0.1712,-0.1705,-0.1689,-0.1672,-0.1669,-0.1667,-0.1611,-0.1612,-0.1612,0,0,0,0,0,0,-0.2006,-0.1996,-0.1898,-0.1937,-0.1923,-0.187,-0.1849,-0.1839,-0.1823,-0.177,-0.176,-0.1795,-0.1719,-0.1709,-0.1682,-0.1685,-0.1667,-0.1664,-0.1611,-0.1611,-0.1612,-0.1657,0,0,0,0,0,0,-0.201,-0.1997,-0.1992,-0.1937,-0.1921,-0.1877,-0.1849,-0.1838,-0.1817,-0.1813,-0.1761,-0.1751,-0.1718,-0.1687,-0.1679,-0.168,-0.1662,-0.161,-0.1611,-0.1612,-0.1655,-0.1659,-0.1663,0,0,0,0,0,-0.2015,-0.2008,-0.1992,-0.1981,-0.1914,-0.1877,-0.1868,-0.1829,-0.1818,-0.1813,-0.1779,-0.1753,-0.1686,-0.1685,-0.1675,-0.1676,-0.161,-0.1611,-0.1611,-0.1653,-0.1658,-0.1662,0,0,0,0,0,0,-0.2066,-0.2,-0.1981,-0.1957,-0.1923,-0.1868,-0.186,-0.1835,-0.1804,-0.1801,-0.1755,-0.1744,-0.1721,-0.1696,-0.1696,-0.1663,-0.1645,-0.1644,-0.168,-0.1684,-0.1688,-0.1695,-0.1659,0,0,0,0,0,-0.2074,-0.2048,-0.1993,-0.1977,-0.1961,-0.1914,-0.1896,-0.1869,-0.1832,-0.1817,-0.1781,-0.1746,-0.1717,-0.1699,-0.167,-0.1651,-0.1639,-0.1646,-0.165,-0.1654,-0.1653,-0.1642,-0.1645,-0.1615,-0.1615,-0.1615,0,0,-0.2091,-0.2052,-0.2039,-0.1986,-0.1957,-0.1932,-0.1902,-0.1877,-0.1858,-0.1813,-0.1786,-0.1758,-0.1716,-0.1694,-0.1682,-0.1672,-0.1659,-0.1655,-0.1658,-0.1656,-0.1643,-0.1646,-0.1649,-0.1615,-0.1615,-0.1615,0,0,-0.211,-0.2077,-0.2061,-0.2031,-0.1987,-0.1955,-0.1951,-0.19,-0.188,-0.1851,-0.1817,-0.1794,-0.1745,-0.1717,-0.1697,-0.1705,-0.1681,-0.1697,-0.1717,-0.1706,-0.1709,-0.1711,-0.1714,-0.1716,-0.1697,-0.1697,-0.1697,0,-0.2137,-0.2098,-0.2055,-0.2033,-0.2011,-0.1968,-0.1952,-0.1926,-0.1874,-0.186,-0.1849,-0.1787,-0.1756,-0.1727,-0.1729,-0.1713,-0.1708,-0.1703,-0.1712,-0.1713,-0.1714,-0.1717,-0.1719,-0.1699,-0.1699,-0.1699,-0.1698,0,-0.2134,-0.2107,-0.2099,-0.205,-0.2027,-0.2007,-0.1963,-0.1945,-0.192,-0.189,-0.1862,-0.1823,-0.1785,-0.1776,-0.1752,-0.1743,-0.1739,-0.172,-0.1702,-0.172,-0.1722,-0.1723,-0.1702,-0.1702,-0.1701,-0.17,0,0,-0.2182,-0.211,-0.2107,-0.2085,-0.2032,-0.2011,-0.199,-0.1953,-0.1939,-0.1904,-0.1886,-0.1846,-0.1829,-0.1805,-0.1777,-0.1768,-0.1779,-0.1751,-0.1749,-0.1758,-0.1768,-0.1783,-0.1785,-0.1762,-0.1762,-0.1762,-0.1772,0,-0.2194,-0.2153,-0.2114,-0.2088,-0.2063,-0.2023,-0.2004,-0.1971,-0.1942,-0.1918,-0.1886,-0.1859,-0.1838,-0.1824,-0.1813,-0.178,-0.178,-0.1778,-0.1745,-0.1745,-0.1758,-0.1785,-0.1801,-0.1812,-0.1772,-0.1772,-0.1772,0,-0.2202,-0.2169,-0.214,-0.209,-0.2078,-0.2062,-0.2025,-0.2002,-0.1963,-0.1943,-0.1918,-0.1888,-0.1865,-0.1848,-0.1816,-0.1816,-0.18,-0.1782,-0.1781,-0.1777,-0.176,-0.1783,-0.1814,-0.1816,-0.1773,-0.1773,-0.1773,0,-0.2241,-0.219,-0.2166,-0.2147,-0.2088,-0.2078,-0.2054,-0.2014,-0.1994,-0.1962,-0.1949,-0.1915,-0.1896,-0.1871,-0.1833,-0.1824,-0.1805,-0.1785,-0.1788,-0.1789,-0.1786,-0.1787,-0.1816,-0.1775,-0.1775,-0.1775,-0.1775,0,-0.2259,-0.2243,-0.2183,-0.2168,-0.2149,-0.2105,-0.2088,-0.206,-0.2025,-0.2005,-0.1968,-0.195,-0.1901,-0.1877,-0.1847,-0.1825,-0.1817,-0.1801,-0.1793,-0.1805,-0.1807,-0.1794,-0.1793,-0.1775,-0.1775,-0.1775,-0.1775,0,-0.23,-0.2259,-0.223,-0.2176,-0.2163,-0.2151,-0.2106,-0.2091,-0.206,-0.2035,-0.2026,-0.1979,-0.1949,-0.1908,-0.1866,-0.1846,-0.1829,-0.1816,-0.1842,-0.1837,-0.1843,-0.1843,-0.1865,-0.1866,-0.1825,-0.1825,-0.1825,0,-0.2314,-0.2301,-0.2246,-0.2229,-0.2205,-0.2179,-0.2158,-0.2115,-0.2095,-0.205,-0.2041,-0.2008,-0.1979,-0.1934,-0.1896,-0.1864,-0.1851,-0.186,-0.1846,-0.1858,-0.1852,-0.1853,-0.1852,-0.1865,-0.1865,-0.1866,-0.1866,0,-0.2344,-0.2324,-0.2295,-0.226,-0.2236,-0.2206,-0.2175,-0.2164,-0.2114,-0.2093,-0.2062,-0.204,-0.1997,-0.1965,-0.1928,-0.1903,-0.1877,-0.1871,-0.187,-0.1882,-0.1898,-0.189,-0.1853,-0.1871,-0.187,-0.187,-0.187,-0.187,-0.2372,-0.2359,-0.2318,-0.2287,-0.2259,-0.223,-0.2213,-0.2181,-0.2154,-0.2115,-0.2091,-0.2061,-0.2023,-0.197,-0.1946,-0.1923,-0.1912,-0.1911,-0.1911,-0.1911,-0.1916,-0.1901,-0.1916,-0.1916,-0.1916,-0.1915,-0.1915,0,-0.2401,-0.2373,-0.2345,-0.2302,-0.2278,-0.2254,-0.2218,-0.22,-0.2174,-0.2141,-0.2113,-0.2078,-0.2047,-0.2007,-0.1973,-0.1962,-0.1949,-0.1955,-0.1956,-0.1951,-0.1926,-0.1931,-0.1966,-0.1966,-0.1966,-0.1966,-0.1966,-0.1966,-0.2413,-0.2389,-0.2365,-0.2327,-0.2298,-0.2268,-0.225,-0.2224,-0.2197,-0.2159,-0.2133,-0.2106,-0.207,-0.2034,-0.2005,-0.1994,-0.1983,-0.1993,-0.1979,-0.1957,-0.1952,-0.1948,-0.1952,-0.1991,-0.1991,-0.2005,-0.2005,-0.2005]},{"header":{"parameterUnit":"m.s-1","parameterCategory":1,"la1":30.2991,"la2":30.254,"lo1":-89.0895,"lo2":-89.0444,"dy":0.0017,"dx":0.0017,"nx":28,"ny":28,"refTime":"2024-06-28T09:00:00:Z","depth":0,"parameterNumber":3,"parameterNumberName":"V-component_of_WINDS"},"data":[0,0,0,0,0,0,0,0,0,0,0,0,0,0,0,0,0,0,0,0,0,0,0,0,0,0,0,0,0,0,0,0,0,0,0,0,0,0,0,0,0,0,0,0,0,0,0,0,0,0,0,0,0,0,0,0,0,0,4.9545,4.9545,0,4.9545,4.9545,4.9545,4.9484,4.9483,4.9481,4.948,4.9479,4.948,4.9481,0,0,0,0,0,0,0,0,0,0,0,0,0,4.9492,4.9493,4.9545,4.9545,4.9545,4.9545,4.9545,4.9545,4.9485,4.9483,4.9481,4.9479,4.9478,4.948,4.9482,0,0,0,0,0,0,0,0,0,0,0,0,0,4.9506,4.9494,4.9545,4.9515,4.9512,4.9545,4.9545,4.9545,4.9485,4.9483,4.948,4.9478,4.9478,4.948,4.9482,4.9543,0,0,4.9488,4.9489,0,0,0,0,0,0,0,0,4.9505,4.9508,4.9519,4.9517,4.9514,4.9512,4.9526,4.9544,4.9486,4.9495,4.948,4.9477,4.9492,4.9492,4.9498,4.9543,4.9543,4.9489,4.949,4.9491,4.9491,0,0,0,0,0,0,0,4.9504,4.9507,4.9544,4.9519,4.9516,4.9501,4.95,4.9529,4.9507,4.9494,4.949,4.9491,4.949,4.9496,4.9497,4.9542,4.9489,4.949,4.9492,4.9493,4.9639,4.9641,0,0,0,0,0,0,4.9507,4.9507,4.9544,4.9544,4.9504,4.9504,4.9503,4.9515,4.9506,4.9503,4.9493,4.9488,4.9493,4.9495,4.9497,4.9568,4.9491,4.9493,4.9494,4.9636,4.9639,4.9642,0,0,0,0,0,0,4.9507,4.9511,4.9544,4.9525,4.9528,4.9507,4.9521,4.9516,4.9522,4.9505,4.9501,4.9503,4.9491,4.9494,4.9532,4.9567,4.9494,4.9496,4.9633,4.9637,4.9641,4.9711,0,0,0,0,0,0,4.9505,4.9511,4.9534,4.9526,4.9529,4.958,4.9523,4.9518,4.9526,4.952,4.9514,4.951,4.949,4.9529,4.9534,4.9569,4.9497,4.963,4.9635,4.9639,4.9706,4.9717,4.9727,0,0,0,0,0,4.9504,4.9554,4.9536,4.9541,4.9557,4.9582,4.9584,4.956,4.9529,4.9552,4.9541,4.951,4.9563,4.9534,4.9539,4.9575,4.9627,4.9633,4.9639,4.9701,4.9715,4.9726,0,0,0,0,0,0,4.9566,4.9552,4.9532,4.9581,4.9583,4.9572,4.96,4.9575,4.9586,4.9579,4.9548,4.9547,4.9591,4.9586,4.9554,4.9634,4.959,4.9597,4.9635,4.9648,4.9658,4.9658,4.9499,0,0,0,0,0,4.9586,4.9608,4.9594,4.9638,4.964,4.962,4.963,4.9611,4.9612,4.9613,4.9605,4.9607,4.9624,4.9636,4.965,4.9705,4.9703,4.9732,4.9743,4.9751,4.9758,4.9787,4.98,4.9661,4.9661,4.9661,0,0,4.9626,4.9621,4.9637,4.9651,4.965,4.9673,4.9621,4.9648,4.9665,4.9617,4.9653,4.9647,4.9647,4.9694,4.9715,4.9692,4.9796,4.9759,4.9766,4.9768,4.9795,4.9808,4.982,4.9665,4.9664,4.9664,0,0,4.9712,4.971,4.9747,4.9749,4.9749,4.9736,4.9745,4.9738,4.9732,4.9768,4.9733,4.9752,4.9782,4.9784,4.9789,4.9877,4.9849,4.9883,4.9938,4.9967,4.9978,4.9987,5.002,5.0031,4.9889,4.9889,4.989,0,4.9762,4.9796,4.9769,4.9799,4.9806,4.9765,4.9803,4.9805,4.981,4.9816,4.9791,4.9828,4.9825,4.9873,4.9894,4.99,4.9909,4.9883,4.9979,4.9988,4.9996,5.0027,5.0039,4.9894,4.9893,4.9893,4.9892,0,4.9857,4.9882,4.9912,4.9919,4.993,4.9963,4.9942,4.9956,4.9937,4.9926,4.9963,4.9959,4.9972,4.9982,4.9963,5.0027,5.0013,4.9984,4.9939,5.0014,5.0042,5.0053,4.9899,4.9898,4.9897,4.9896,0,0,4.9981,4.9975,4.9987,4.999,4.9988,5.0006,5.0038,5.0052,5.0065,5.007,5.0096,5.0123,5.0096,5.0102,5.0083,5.0108,5.0179,5.0076,5.0075,5.0095,5.0251,5.0273,5.0287,5.0161,5.0163,5.0165,5.0251,0,5.0065,5.0119,5.0097,5.0154,5.0176,5.0138,5.0165,5.0168,5.0159,5.0176,5.0166,5.0186,5.0149,5.0152,5.0176,5.0166,5.021,5.0159,5.0185,5.0186,5.0186,5.0301,5.0325,5.0406,5.0261,5.0263,5.0264,0,5.0169,5.018,5.0239,5.0235,5.0243,5.0269,5.028,5.0297,5.0299,5.0291,5.0298,5.0274,5.0305,5.0261,5.0303,5.0269,5.0278,5.0275,5.0278,5.0279,5.023,5.0306,5.0431,5.0444,5.0281,5.028,5.0279,0,5.0255,5.0284,5.0323,5.0327,5.0323,5.0342,5.0341,5.034,5.035,5.036,5.0367,5.038,5.0387,5.0398,5.0378,5.0348,5.0424,5.0378,5.0418,5.0419,5.0436,5.0435,5.0565,5.0442,5.0442,5.0441,5.0441,0,5.035,5.0388,5.0362,5.0386,5.0427,5.0402,5.0443,5.0438,5.0438,5.0461,5.0428,5.045,5.0422,5.0441,5.0426,5.0464,5.0467,5.0461,5.0457,5.0464,5.0465,5.047,5.0464,5.0445,5.0444,5.0443,5.0443,0,5.0453,5.0437,5.0477,5.047,5.0469,5.05,5.0494,5.0516,5.0506,5.0535,5.054,5.0523,5.0544,5.0525,5.0545,5.0535,5.0586,5.0573,5.0585,5.0582,5.0624,5.062,5.0761,5.0778,5.0644,5.0645,5.0646,0,5.0515,5.0543,5.054,5.0553,5.0555,5.0576,5.0587,5.0563,5.0575,5.058,5.0602,5.062,5.0634,5.0669,5.0658,5.0674,5.0661,5.0709,5.0663,5.067,5.0662,5.0661,5.0664,5.0719,5.072,5.0722,5.0723,0,5.0627,5.0618,5.0635,5.065,5.0664,5.0674,5.0681,5.0694,5.0669,5.0685,5.0707,5.0717,5.0738,5.0757,5.0769,5.0767,5.0742,5.0738,5.0748,5.0756,5.0762,5.076,5.0611,5.0734,5.0733,5.0732,5.0732,5.0731,5.0712,5.0736,5.0738,5.0758,5.0761,5.0769,5.079,5.0783,5.08,5.0816,5.0801,5.0827,5.0829,5.0843,5.0845,5.0865,5.0844,5.0859,5.0863,5.0867,5.0873,5.0759,5.0867,5.0866,5.0866,5.0866,5.0865,0,5.0823,5.0823,5.0842,5.0854,5.087,5.0845,5.0852,5.0867,5.0891,5.0895,5.0909,5.0935,5.0953,5.0944,5.096,5.0978,5.0967,5.0983,5.0982,5.0982,5.089,5.088,5.0992,5.0992,5.0992,5.0992,5.0992,5.0992,5.0883,5.0922,5.0914,5.0955,5.0954,5.098,5.0986,5.0994,5.0997,5.1027,5.1043,5.1037,5.1036,5.1052,5.1068,5.1065,5.1073,5.1094,5.1087,5.1001,5.0988,5.0977,5.0967,5.1096,5.1096,5.1177,5.1177,5.1178]}]]